Wind_Speed
4 4 3 4 3 3 2 2 2 2 2 2 2 2 3 3 3 3 3 3 3 3 3 3 4 5 5 6 6 6 6 6 6 6 6 5 5 5 4 4 4 4 4
4 3 3 3 2 2 2 2 1 1 1 2 3 3 3 3 3 3 3 3 3 3 3 3 3 4 5 5 6 6 7 7 7 7 7 7 6 6 6 6 6 5 5
3 2 2 2 2 2 2 2 1 0 1 2 3 4 3 3 3 4 4 3 4 4 4 4 3 4 5 6 6 6 7 7 8 8 8 8 7 7 7 7 7 7 7
3 2 2 2 2 1 1 1 1 1 1 1 2 3 3 3 3 3 3 3 4 4 4 5 5 6 6 7 7 6 6 7 7 7 8 8 8 8 8 8 8 9 8
3 2 2 1 1 1 1 1 1 1 1 1 1 2 3 3 4 4 4 4 4 4 5 6 6 6 7 8 7 7 7 7 7 8 9 8 8 8 8 9 9 9 9
4 2 1 1 1 1 1 1 2 2 2 2 2 3 3 4 4 4 5 5 5 5 5 6 6 6 7 7 8 8 8 8 8 8 9 8 8 9 9 9 10 10 10
4 2 1 0 1 1 1 2 2 2 3 3 3 3 4 4 4 4 5 5 5 5 5 6 6 7 7 8 7 9 10 10 9 10 10 9 9 10 10 10 10 11 11
4 3 2 1 1 1 1 2 2 2 3 3 3 4 4 4 4 4 4 5 6 6 7 7 7 8 9 9 8 9 10 10 9 10 11 10 11 11 11 11 12 13 13
5 4 3 2 2 1 2 2 3 3 3 3 3 4 4 4 4 5 5 6 6 6 7 8 8 8 8 9 9 9 10 11 11 10 11 12 12 13 13 12 13 13 13
5 4 4 3 3 2 2 2 3 3 4 4 4 4 4 4 5 6 6 6 6 7 7 8 8 8 9 10 11 10 10 10 11 11 12 13 13 13 13 13 13 14 14
6 5 5 5 5 4 4 4 4 4 5 5 5 5 5 5 6 6 6 6 7 8 8 8 8 9 10 11 11 11 11 11 12 12 13 13 12 12 13 14 14 14 15
6 6 6 6 6 6 6 6 5 5 5 5 5 5 6 6 6 7 7 7 7 8 8 9 10 11 11 12 12 11 11 12 13 12 12 12 12 12 13 14 15 15 16
7 7 7 7 7 6 6 6 6 5 5 6 6 6 6 6 6 7 8 8 8 9 9 10 11 12 12 12 12 11 12 13 13 12 13 13 13 14 14 15 16 16 17
8 8 8 8 7 6 6 6 6 6 5 5 6 6 7 7 7 8 8 9 9 9 10 10 11 11 11 10 11 12 12 13 13 13 13 14 15 15 16 16 17 18 19
8 8 9 8 8 7 6 6 6 6 6 7 7 7 7 7 8 8 9 10 10 10 10 10 11 11 11 11 12 12 12 12 13 13 14 15 16 16 17 18 19 19 20
9 9 9 9 8 8 7 7 6 7 7 7 8 8 8 9 9 9 10 10 10 11 11 12 12 12 12 13 13 13 13 13 14 14 15 15 17 18 18 19 19 20 21
9 10 10 10 9 8 8 8 8 9 8 9 9 9 9 9 9 9 9 10 11 12 12 13 13 13 14 14 14 14 14 15 15 16 17 17 18 19 20 20 21 22 23
10 10 10 10 10 9 9 10 10 10 10 10 10 10 10 10 10 11 11 11 11 11 12 13 14 14 15 15 15 16 16 16 17 17 18 19 19 20 20 20 21 22 22
10 11 11 10 10 10 11 11 11 11 11 11 10 10 10 11 12 12 12 12 12 12 13 13 14 14 15 15 16 16 17 18 18 19 19 20 20 20 20 21 21 22 22
11 11 11 11 11 12 12 13 13 12 12 12 11 11 12 12 13 13 13 13 13 13 14 14 15 15 16 16 17 17 18 19 19 20 21 21 21 21 21 22 22 23 24
11 12 12 12 12 13 14 14 14 13 13 12 12 13 13 14 13 14 14 14 14 15 15 16 16 16 16 17 17 18 19 19 20 21 21 22 22 22 23 23 24 24 25
12 12 13 13 14 14 14 15 14 14 14 13 14 14 14 14 15 15 15 16 16 16 16 17 17 18 18 19 19 20 20 21 21 22 22 23 23 24 25 26 26 26 27
13 13 14 14 14 15 15 15 15 15 15 14 14 15 15 15 16 16 16 16 16 16 17 17 18 19 19 20 21 21 22 22 23 23 24 24 25 26 27 27 28 28 28
16 16 16 16 16 16 17 17 16 17 17 17 16 16 16 17 16 16 16 17 18 18 19 19 19 20 21 21 22 22 23 23 23 24 25 25 26 27 28 28 29 29 30
18 19 18 18 18 18 18 18 18 18 18 18 18 18 18 18 17 17 18 19 20 20 20 21 21 22 22 22 23 23 24 24 25 26 26 27 28 29 29 29 29 30 31
20 21 20 20 19 19 19 19 20 20 20 20 20 20 19 19 19 20 20 21 21 21 21 22 22 23 23 24 24 25 26 26 27 27 28 29 29 30 30 31 31 31 32
Wind_Direction
124 136 138 134 128 129 128 121 124 136 153 167 189 193 202 196 200 197 217 228 218 213 218 227 227 221 219 223 225 230 230 224 220 223 221 221 225 225 233 248 253 251 246
120 133 140 144 149 141 125 124 151 170 208 206 217 225 224 231 228 222 229 231 234 228 228 240 241 226 226 235 237 239 238 237 233 231 229 226 232 237 240 253 257 257 259
90 131 142 149 156 133 125 132 158 243 242 228 224 221 219 233 243 244 237 238 241 244 242 241 241 235 235 237 243 246 241 240 235 234 234 231 238 243 246 253 257 257 259
63 100 143 143 134 120 120 151 188 238 237 254 240 231 229 224 231 234 239 246 251 251 247 248 250 249 244 243 246 250 246 232 237 240 236 235 241 247 250 253 255 255 257
69 74 132 152 156 159 169 186 231 268 269 284 294 263 249 239 241 243 244 252 255 252 248 251 255 256 250 250 253 254 248 244 243 243 240 242 244 249 254 254 256 256 260
60 58 89 171 198 212 227 267 282 276 278 277 283 281 278 260 253 254 255 252 250 251 252 256 257 254 251 256 258 258 251 250 249 249 246 250 254 257 261 260 257 258 262
50 48 38 94 224 263 269 291 293 285 284 284 284 281 284 275 264 264 257 252 250 253 256 262 264 256 259 263 268 260 255 254 255 252 253 258 261 263 264 261 261 262 264
38 43 38 21 324 296 290 291 286 281 291 293 292 292 285 282 273 272 267 260 260 261 261 264 264 262 260 262 266 260 259 261 261 261 256 260 263 264 259 261 264 266 267
25 30 27 6 346 319 311 306 295 279 288 287 287 292 293 294 279 275 272 269 267 266 265 264 269 267 267 267 269 268 269 269 269 267 262 262 266 266 264 268 269 271 269
26 23 18 3 345 333 321 311 302 288 290 291 285 283 281 290 288 283 279 272 274 273 272 270 272 276 278 277 274 275 277 272 270 271 268 269 270 268 266 266 270 272 273
15 11 4 0 348 333 322 312 306 298 295 297 288 283 276 276 277 281 278 278 278 277 274 273 273 277 280 278 275 278 277 275 275 273 272 272 272 272 271 271 274 274 276
1 357 352 348 342 334 327 321 314 311 304 303 294 290 283 277 273 274 277 280 278 279 277 278 277 277 279 278 275 278 274 276 277 275 275 277 275 274 272 273 275 276 277
345 341 338 338 335 328 321 319 313 308 306 304 297 291 290 281 273 271 277 276 276 279 280 280 279 278 281 282 280 281 279 280 278 277 277 279 279 276 273 274 276 279 280
336 333 333 333 331 323 320 318 317 310 305 303 295 295 287 277 273 272 275 274 271 276 280 281 282 283 283 283 285 284 285 283 281 282 281 281 281 280 277 276 277 280 283
335 338 341 338 331 325 319 319 315 311 307 298 294 291 289 278 276 280 281 279 277 280 283 285 288 288 284 286 288 290 292 288 286 286 285 283 282 281 280 279 280 282 283
337 336 334 333 331 328 323 317 314 311 305 298 295 291 286 283 282 284 284 279 277 279 283 287 287 285 285 286 287 291 291 291 290 288 287 288 286 284 282 283 283 284 285
331 333 333 332 330 327 324 320 314 310 304 300 296 293 291 286 285 285 285 283 278 278 279 282 285 285 287 288 288 290 290 290 289 288 288 288 289 288 285 284 285 286 286
327 327 327 328 326 324 323 321 315 310 306 302 298 292 292 291 289 287 286 287 285 283 283 283 284 286 287 288 290 289 290 291 290 289 289 289 291 291 290 288 290 291 290
321 322 322 321 320 318 316 315 313 306 303 301 300 294 290 292 294 292 290 289 288 286 285 284 284 286 286 287 288 288 288 289 290 290 289 290 291 292 292 291 291 292 292
312 314 316 314 313 310 309 309 310 306 300 297 297 296 292 291 293 294 293 291 289 289 288 287 288 287 287 289 289 289 289 289 290 290 290 291 291 292 292 292 291 292 293
306 307 309 310 309 307 307 305 307 307 300 295 294 295 295 292 290 292 293 293 293 292 291 290 290 290 290 292 292 292 293 293 292 291 290 290 291 292 292 292 292 293 293
301 302 305 307 308 306 305 304 306 306 301 298 295 294 293 293 290 292 292 291 291 293 293 292 292 292 292 292 292 292 293 293 293 292 291 290 291 292 292 292 292 293 293
300 302 302 303 305 304 304 303 302 306 304 300 297 296 295 292 291 290 294 295 294 293 292 291 290 290 291 291 291 291 292 291 291 291 291 291 292 292 293 293 293 292 292
298 298 298 298 298 298 298 299 299 302 303 302 300 297 296 295 292 293 294 294 293 292 291 290 290 290 292 293 291 292 292 291 292 293 294 294 294 294 295 295 294 293 292
295 294 293 293 294 294 294 294 294 296 298 300 300 298 295 293 293 295 294 294 293 290 290 290 290 290 291 292 293 294 294 294 294 293 294 294 295 296 295 295 295 294 294
293 294 292 291 291 290 290 291 293 294 296 297 297 297 296 294 293 294 295 294 294 292 291 291 291 291 291 293 294 294 294 294 294 293 293 294 295 295 294 294 294 294 294
Height
5892 5893 5893 5893 5893 5893 5893 5894 5894 5894 5894 5894 5894 5894 5894 5894 5894 5895 5895 5895 5896 5896 5896 5896 5896 5896 5897 5897 5898 5898 5898 5898 5899 5899 5900 5900 5901 5901 5901 5901 5901 5902 5902
5893 5893 5893 5893 5893 5894 5894 5894 5894 5894 5894 5894 5894 5894 5893 5894 5894 5895 5895 5895 5895 5895 5895 5895 5895 5896 5896 5897 5897 5897 5897 5897 5898 5898 5899 5899 5900 5900 5901 5901 5901 5901 5901
5894 5894 5894 5894 5894 5894 5894 5894 5894 5894 5894 5894 5894 5893 5893 5893 5894 5894 5894 5894 5894 5894 5894 5895 5895 5895 5896 5896 5896 5896 5896 5896 5897 5897 5897 5898 5898 5899 5899 5899 5899 5900 5900
5894 5894 5894 5894 5894 5894 5894 5894 5894 5894 5894 5893 5893 5893 5893 5893 5893 5893 5894 5894 5893 5893 5893 5894 5894 5894 5895 5895 5895 5895 5894 5895 5896 5896 5896 5896 5897 5897 5897 5897 5898 5898 5898
5895 5894 5894 5894 5894 5894 5894 5894 5894 5893 5893 5893 5893 5893 5893 5893 5893 5893 5893 5893 5893 5893 5893 5893 5893 5893 5893 5894 5893 5893 5893 5893 5894 5894 5894 5895 5895 5895 5895 5895 5896 5896 5896
5895 5895 5894 5894 5894 5894 5894 5894 5893 5893 5893 5893 5893 5893 5892 5892 5892 5892 5892 5892 5892 5892 5892 5892 5892 5892 5892 5892 5891 5891 5892 5892 5892 5893 5893 5893 5893 5893 5893 5893 5894 5894 5894
5896 5895 5895 5894 5894 5894 5893 5893 5893 5893 5893 5892 5892 5892 5892 5891 5891 5891 5891 5891 5891 5891 5891 5891 5891 5891 5891 5890 5890 5889 5889 5890 5890 5891 5891 5891 5891 5891 5891 5891 5891 5891 5892
5896 5896 5895 5895 5894 5894 5893 5893 5893 5892 5892 5892 5892 5891 5891 5891 5890 5890 5890 5890 5890 5890 5890 5890 5889 5889 5889 5889 5889 5888 5888 5888 5888 5888 5888 5889 5889 5888 5888 5889 5889 5889 5889
5897 5896 5895 5895 5894 5894 5893 5892 5892 5892 5892 5891 5890 5890 5890 5890 5889 5889 5888 5888 5888 5889 5888 5888 5888 5888 5888 5887 5887 5886 5886 5886 5886 5886 5886 5886 5885 5885 5885 5885 5885 5885 5885
5897 5896 5895 5895 5894 5893 5893 5892 5891 5891 5891 5890 5889 5889 5889 5888 5888 5888 5887 5887 5887 5887 5887 5886 5886 5886 5886 5885 5885 5884 5884 5884 5884 5883 5883 5882 5882 5882 5882 5882 5882 5882 5881
5898 5896 5895 5894 5894 5893 5892 5891 5890 5890 5889 5889 5888 5888 5887 5886 5886 5886 5886 5886 5885 5885 5885 5885 5885 5884 5884 5883 5883 5882 5882 5882 5881 5881 5880 5880 5879 5879 5879 5878 5878 5878 5877
5898 5897 5895 5894 5893 5892 5891 5890 5889 5888 5888 5887 5886 5886 5885 5885 5885 5885 5884 5884 5884 5884 5883 5883 5883 5882 5882 5881 5880 5880 5879 5879 5878 5878 5877 5877 5876 5876 5875 5875 5875 5874 5873
5898 5896 5895 5894 5892 5891 5890 5889 5888 5887 5886 5886 5885 5884 5884 5883 5883 5883 5883 5882 5882 5882 5881 5881 5881 5880 5879 5878 5878 5877 5876 5876 5875 5874 5874 5873 5873 5872 5872 5872 5871 5870 5869
5897 5895 5894 5892 5891 5890 5889 5888 5887 5886 5885 5885 5884 5883 5882 5882 5881 5881 5881 5880 5880 5880 5879 5879 5878 5877 5877 5876 5875 5874 5873 5873 5872 5871 5871 5870 5869 5869 5868 5867 5867 5866 5865
5895 5894 5892 5891 5890 5889 5888 5887 5886 5885 5884 5883 5882 5882 5881 5880 5880 5879 5879 5878 5878 5878 5877 5876 5876 5875 5874 5873 5872 5871 5870 5869 5869 5868 5867 5866 5866 5865 5864 5863 5862 5861 5860
5894 5893 5891 5890 5888 5887 5887 5886 5885 5884 5882 5881 5880 5880 5879 5878 5878 5877 5877 5876 5875 5875 5875 5874 5873 5872 5871 5870 5869 5868 5867 5866 5865 5865 5864 5863 5862 5861 5860 5859 5858 5856 5855
5893 5892 5890 5889 5887 5886 5885 5884 5883 5882 5881 5879 5878 5878 5877 5876 5876 5875 5874 5873 5872 5872 5871 5871 5870 5869 5868 5867 5866 5865 5864 5863 5862 5861 5860 5859 5857 5856 5855 5854 5853 5852 5850
5892 5890 5889 5888 5887 5885 5884 5883 5882 5880 5879 5877 5876 5875 5875 5874 5873 5872 5871 5870 5869 5869 5868 5867 5866 5865 5865 5863 5863 5861 5860 5859 5858 5857 5855 5854 5853 5851 5850 5849 5847 5846 5844
5890 5889 5887 5886 5885 5884 5883 5881 5880 5878 5876 5875 5874 5873 5872 5871 5870 5869 5868 5867 5866 5865 5864 5863 5863 5862 5861 5860 5859 5858 5856 5855 5853 5852 5851 5849 5848 5846 5845 5843 5841 5840 5838
5888 5887 5885 5884 5883 5881 5880 5879 5877 5875 5874 5872 5871 5870 5869 5868 5867 5866 5865 5864 5863 5862 5860 5860 5859 5858 5857 5856 5854 5853 5851 5850 5848 5847 5845 5844 5842 5841 5839 5837 5836 5834 5832
5886 5885 5883 5882 5880 5879 5878 5876 5874 5872 5871 5869 5868 5867 5866 5865 5864 5863 5862 5860 5859 5858 5856 5855 5854 5853 5852 5851 5850 5848 5846 5844 5843 5841 5840 5838 5837 5835 5833 5831 5829 5827 5826
5883 5881 5880 5879 5877 5876 5874 5873 5871 5869 5867 5866 5865 5864 5862 5861 5860 5859 5858 5856 5855 5854 5852 5851 5850 5849 5848 5846 5845 5843 5841 5839 5838 5836 5834 5832 5830 5828 5826 5824 5822 5820 5818
5880 5878 5877 5875 5874 5872 5871 5869 5868 5866 5864 5863 5861 5860 5858 5857 5855 5854 5853 5852 5851 5849 5848 5847 5846 5844 5843 5841 5839 5837 5836 5834 5832 5830 5828 5826 5824 5821 5819 5817 5815 5813 5810
5876 5874 5873 5871 5870 5868 5867 5866 5864 5862 5861 5859 5857 5856 5854 5853 5851 5850 5849 5847 5846 5845 5844 5842 5840 5839 5837 5835 5834 5832 5830 5828 5826 5824 5821 5819 5817 5814 5812 5810 5807 5805 5802
5871 5869 5868 5866 5865 5863 5862 5861 5860 5858 5857 5855 5853 5851 5850 5848 5847 5845 5844 5842 5841 5839 5838 5836 5835 5833 5831 5829 5827 5826 5823 5821 5819 5817 5815 5812 5810 5807 5804 5802 5799 5796 5794
5866 5864 5863 5861 5860 5859 5857 5856 5855 5853 5852 5850 5848 5846 5845 5843 5842 5840 5839 5837 5835 5833 5832 5830 5828 5827 5825 5823 5821 5819 5817 5814 5812 5810 5807 5804 5802 5799 5796 5793 5790 5788 5785